THOR ABLESTAR DEB, 127

Orbit data source: Space-Track

THOR ABLESTAR DEB, 127 is space debris in LEO originally from a launch on Thu, 29 Jun 1961 UTC launched from the Air Force Eastern Test Range (AFETR). Debris objects in space refer to the collection of defunct objects orbiting the Earth. Examples of debris include non-operational satellites, rocket bodies, and fragments generated from explosions, collisions, or faulty payload assembly.

Loading next visibility...
Identifier
127, 1961-015M
Orbit
LEO
Country
Flag of USUS
Related business
Manufacturer
Unknown
Mission
Spacecraft
Bus & Motor
Unknown
Mass
Unknown
Launch date (UTC)
1961-06-29 (65 years ago)
Launch vehicle
Unknown
Launch site
Air Force Eastern Test Range (AFETR)
Object type
Payload
Rocket body
Debris
Shape & HBR
Unknown shape, 0.5 m
Radar Cross Section
Medium (>0.1 m² and <1 m²)

Expand to show TLE details & history
Last TLE update: 12 hours ago

TLE from 12 hours ago
0 THOR ABLESTAR DEB
1 00127U 61015M   26062.80661993  .00003238  00000-0  87323-3 0  9993
2 00127  66.8275 227.9051 0057002  86.9941 273.7688 14.48191020351597
Epoch: 2026-03-03T19:21Z
TLE epoch observation values (Epoch: 2026-03-03T19:21:31.961Z)
Latitude
-0.00008°
Longitude
135.9415°
Altitude
731.264 km
Speed
7.491 km/s
True Right ascension
15h 11m 37s
True Declination
0° 00' 00"
Sunlit
Object was in partial shadow at epoch
Visualization orbit readout
Latitude
Unknown
Longitude
Unknown
Altitude
Unknown
Speed
Unknown
Apparent Right ascension
Unknown
Apparent Declination
Unknown
Sunlit
N/A
Visualization observer readout
Local Sidereal Time
10:55:40
Azimuth
Unknown
Elevation
Unknown
Doppler factor
Unknown
Orbital elements
Apogee altitude
770.426 km
Perigee altitude
689.392 km
Semi-major axis
7,108.046 km
Eccentricity
0.0057
Inclination
66.8275°
RAAN
227.9051°
Arg. of periapsis
86.9941°
True anomaly
273.11673°
Mean anomaly
273.7688°
Eccentric anomaly
273.44279°
Mean motion
3.62174 °/min
Orbital period
99.4 mins
BSTAR
0.00087323
Loading maneuver chart data...
Computing Atmospheric mass density...

Documentation

Showing up to 5 results
|